Temperature
25 24 24 24 23 23 22 23 22 22 22 22 21 20 20 19 18 18 17 17 16 16 15 15 15 14 14 13 13 13 12 12 11 11 11 11 12 12 12 12 12 12 12 12
24 24 24 24 24 23 23 23 23 22 22 23 21 20 20 19 18 18 17 17 16 16 15 15 15 14 14 13 13 13 12 11 11 11 11 11 11 11 11 11 12 12 12 12
25 25 24 24 24 24 23 24 23 22 22 22 21 20 20 19 19 18 17 17 16 16 15 15 15 14 14 14 13 12 12 11 11 11 11 11 11 11 11 11 12 12 12 12
25 25 23 24 25 25 24 24 24 23 23 22 21 20 20 19 19 18 17 16 16 15 15 15 15 14 14 14 13 12 12 11 11 11 11 11 11 11 11 11 11 11 12 12
25 25 25 24 25 24 23 23 25 24 23 22 21 20 20 19 18 18 17 16 15 15 15 15 14 14 14 14 13 12 12 11 11 11 11 11 11 11 11 11 11 11 11 12
24 23 24 25 25 25 24 23 25 24 23 22 21 20 20 19 18 17 16 16 15 15 15 15 14 14 14 13 12 12 11 11 11 11 11 11 11 11 11 11 11 11 11 11
23 24 26 24 24 24 22 23 24 24 23 22 21 20 20 19 18 17 16 15 15 15 15 14 14 14 14 13 12 12 11 11 11 11 11 11 11 11 11 11 11 11 11 11
24 24 24 23 23 23 24 24 23 23 23 22 21 20 19 18 18 17 16 15 15 15 15 14 14 14 13 13 12 12 12 11 11 11 11 11 11 11 11 11 11 11 11 11
26 25 24 24 24 24 24 24 23 23 22 22 21 20 19 18 17 17 16 16 15 15 15 15 14 14 13 13 12 12 12 12 11 11 11 11 11 11 11 11 11 10 11 11
25 26 25 24 24 24 23 23 23 22 22 21 20 20 19 18 18 17 16 16 15 15 15 15 14 14 13 13 13 12 12 12 12 11 11 11 11 11 11 11 11 11 10 10
25 25 26 25 24 24 23 22 22 22 21 21 20 20 19 18 18 17 17 16 15 15 15 15 15 14 14 13 13 13 13 12 12 12 11 11 11 11 11 11 11 11 11 11
25 26 26 26 25 23 23 22 21 21 21 20 20 19 19 18 18 17 17 16 16 15 15 15 15 14 14 13 13 13 13 12 12 12 12 11 11 11 11 11 11 11 11 11
27 26 26 25 24 23 23 22 21 21 20 20 19 19 19 18 18 17 17 16 16 15 15 15 15 14 14 14 13 13 13 12 12 12 12 11 11 11 11 11 11 11 11 11
26 25 24 24 23 23 23 22 21 20 20 20 19 19 18 18 18 17 17 16 16 16 15 15 15 14 14 14 13 13 13 13 12 12 12 12 11 11 11 11 11 11 11 11
25 24 24 24 23 23 22 22 21 20 20 19 19 18 18 18 17 17 17 16 16 15 15 15 15 15 14 14 14 13 13 13 12 12 12 12 12 11 11 11 11 11 11 11
23 23 23 23 22 22 22 21 21 20 20 19 19 18 18 18 17 17 16 16 16 15 15 15 15 15 14 14 14 13 13 13 13 12 12 12 12 12 12 11 11 11 11 11
21 21 21 21 21 21 21 21 21 21 20 20 19 19 18 17 17 17 16 16 16 15 15 15 15 14 14 14 14 13 13 13 13 13 12 12 12 12 12 12 11 11 11 11
18 19 19 20 21 21 21 21 21 21 20 20 19 18 18 17 17 17 16 16 15 15 15 15 15 14 14 14 14 13 13 13 13 13 13 12 12 12 12 12 12 11 11 11
16 17 18 18 19 20 20 21 21 21 20 20 19 19 18 17 17 17 16 16 15 15 15 15 14 14 14 14 13 13 13 13 13 13 13 12 12 12 12 12 12 12 12 11
14 15 16 16 17 18 19 20 20 20 20 20 19 19 18 17 17 16 16 16 16 15 15 15 14 14 14 14 13 13 13 13 13 13 13 13 12 12 12 12 12 12 12 12
13 13 14 15 16 17 17 18 19 20 20 20 19 19 18 17 17 16 16 16 16 15 15 15 14 14 14 14 13 13 13 13 13 13 13 12 12 12 12 12 12 12 12 12
11 12 13 13 14 15 16 17 18 18 19 19 19 18 18 17 17 16 16 16 16 15 15 15 15 14 14 14 13 13 13 13 13 12 12 12 12 12 12 12 12 12 12 12
10 11 11 12 13 14 15 16 16 17 18 18 18 18 18 17 17 17 16 16 16 15 15 15 15 15 14 14 14 13 13 13 13 13 12 12 12 12 12 12 12 12 12 12
9 10 10 10 11 12 13 13 14 15 16 17 17 17 17 17 17 16 16 16 16 15 15 15 15 15 14 14 14 14 13 13 13 13 13 12 12 12 12 12 12 12 12 12
8 8 9 9 9 10 10 11 12 13 14 15 15 16 16 16 16 16 16 16 15 15 15 15 15 14 14 14 14 14 13 13 13 13 13 13 12 12 12 12 12 12 12 12
7 7 7 8 8 8 8 9 10 10 11 12 13 13 14 14 15 15 15 15 15 15 15 14 14 14 14 14 14 14 13 13 13 13 13 13 13 12 12 12 12 12 12 12
6 6 7 7 7 7 7 7 8 8 9 9 10 11 12 12 13 13 14 14 14 14 14 14 14 14 14 14 14 14 13 13 13 13 13 13 13 13 12 12 12 12 12 12
Wind_Speed
1 1 2 3 4 5 6 6 5 4 3 0 4 3 2 2 2 2 3 5 6 6 6 5 5 6 6 7 7 8 8 9 9 9 9 9 9 9 9 9 9 8 8 9
4 4 4 7 8 8 8 7 6 5 3 4 5 3 3 3 1 1 3 4 6 7 6 6 6 6 6 7 8 8 8 8 8 9 9 9 9 9 9 9 9 9 9 9
4 5 5 8 9 11 9 6 6 6 2 6 5 4 3 2 2 1 2 3 5 6 6 7 7 6 6 6 7 8 8 8 8 9 9 9 10 9 9 8 8 9 9 9
5 3 5 2 4 3 6 8 7 6 3 6 4 4 4 2 2 2 2 3 5 5 5 6 7 7 6 6 8 8 8 8 8 8 8 8 9 9 8 7 8 8 9 9
4 5 5 6 5 4 4 7 8 8 7 7 6 5 6 6 4 3 4 4 4 3 4 5 6 6 6 7 8 8 7 7 7 8 8 8 9 8 7 7 7 7 7 9
5 4 4 6 9 5 3 5 7 8 8 9 8 5 5 8 7 5 5 4 2 2 4 5 5 5 5 7 8 7 7 7 7 6 7 7 7 7 6 6 6 6 8 9
7 6 2 9 9 6 3 2 5 6 8 9 9 4 4 10 8 6 5 3 0 1 2 4 5 5 6 7 6 6 5 6 6 6 6 6 6 6 6 6 6 7 7 8
5 5 1 11 8 5 1 4 2 4 6 8 7 7 7 9 8 7 6 4 1 1 1 2 4 4 4 5 4 3 3 3 4 5 6 7 6 6 6 6 6 7 7 7
2 2 6 8 6 5 2 1 4 4 5 7 8 8 8 8 8 7 6 5 3 2 2 1 2 3 3 3 2 2 2 2 3 4 5 6 7 7 7 7 6 6 6 6
4 4 6 9 7 6 4 3 3 5 5 7 8 8 8 8 8 8 6 5 4 4 3 1 3 2 2 2 2 1 1 2 3 4 5 6 6 6 6 6 6 6 6 5
6 6 4 7 9 8 6 6 5 6 6 7 8 8 9 8 7 7 7 6 4 3 3 2 3 3 2 1 2 2 1 2 3 4 3 4 5 5 5 4 4 4 5 5
5 4 3 3 8 9 9 8 8 7 8 8 8 8 8 8 7 7 7 7 6 5 4 3 2 2 3 3 2 3 2 2 2 2 2 1 4 4 6 5 5 6 7 5
6 3 3 3 2 7 9 9 9 9 9 8 8 8 8 7 7 7 7 7 7 6 5 4 2 2 3 4 2 3 0 1 1 1 1 0 1 3 3 2 2 4 5 6
2 2 4 3 4 5 8 9 10 10 9 9 8 8 8 8 7 8 8 7 7 6 5 5 4 3 3 3 2 3 1 2 1 1 1 1 0 0 1 3 3 2 1 1
4 4 5 4 4 5 6 8 9 10 10 10 9 9 9 9 8 8 8 7 7 7 6 5 5 4 4 3 3 3 2 2 2 0 1 1 1 1 1 1 1 3 4 2
7 4 4 6 6 6 7 9 11 11 11 11 11 10 10 10 8 8 8 7 7 8 7 7 6 5 5 4 3 2 1 2 2 2 3 3 3 2 2 1 1 2 3 3
9 7 6 7 8 8 9 10 11 11 11 11 11 11 10 10 9 9 9 8 8 7 7 7 6 5 6 5 4 3 4 5 7 4 4 3 2 2 3 3 2 2 3 4
12 10 10 9 8 9 9 10 11 11 11 11 11 11 12 12 11 10 9 9 8 8 8 7 6 7 7 7 5 4 4 4 5 5 4 4 3 2 2 3 3 4 4 4
15 14 14 13 12 11 10 9 9 10 10 10 12 13 12 12 11 10 10 10 10 10 9 8 9 7 7 8 7 4 4 5 4 5 4 5 4 4 4 4 4 4 5 5
16 16 15 14 13 12 11 10 9 9 9 10 11 12 12 12 11 11 11 10 9 8 8 9 9 8 7 8 9 5 5 6 5 4 4 5 5 5 5 5 5 5 5 5
17 17 17 15 14 13 12 12 10 8 8 9 11 12 12 12 11 11 10 9 8 10 9 10 8 7 7 7 11 6 6 6 5 5 4 5 5 5 5 5 5 5 5 5
16 16 17 16 15 13 12 11 10 9 8 8 9 10 10 11 11 11 11 9 8 12 10 7 7 8 10 9 7 7 6 6 5 5 5 5 5 5 5 5 5 5 5 5
15 16 16 16 16 14 13 12 12 10 7 7 7 8 9 9 8 9 8 8 8 12 10 8 10 14 14 9 7 7 7 7 6 6 5 5 5 5 5 5 5 4 4 5
15 15 15 15 15 14 14 14 13 10 9 6 5 5 6 6 6 7 6 10 14 14 10 11 15 16 15 8 7 7 7 7 7 6 6 5 5 5 5 5 5 5 5 5
13 14 14 14 13 12 13 14 13 12 11 9 9 7 4 3 4 5 6 8 13 14 9 11 16 17 12 8 8 8 8 7 7 6 6 6 6 5 5 5 5 5 5 5
11 10 9 10 10 10 11 11 10 10 10 10 9 9 7 5 2 1 2 5 10 12 9 7 10 12 10 9 8 8 8 8 9 7 7 6 6 6 6 6 7 5 5 5
11 9 8 8 8 9 9 10 10 10 9 10 10 10 8 7 6 4 2 0 3 6 6 6 7 9 9 8 8 8 7 7 7 7 8 7 7 6 6 7 6 5 5 5
Wind_Direction
50 6 307 268 237 229 253 284 308 1 1 58 120 131 128 123 82 22 19 13 11 14 15 4 20 14 6 4 11 21 30 24 14 11 11 10 12 18 19 18 21 23 26 29
238 210 241 258 246 236 243 254 265 280 278 114 110 133 153 158 128 29 23 16 15 10 13 4 17 17 14 18 21 29 34 27 15 16 16 10 13 21 22 20 20 24 28 30
268 170 247 257 231 221 226 227 237 255 233 138 154 174 184 168 137 101 40 26 26 10 10 3 13 20 16 25 32 33 30 28 20 19 18 13 15 18 20 22 23 26 26 30
278 222 254 114 99 182 226 236 228 227 169 154 172 163 166 167 155 131 92 49 39 9 0 1 15 16 10 35 42 37 27 25 24 22 20 15 15 16 18 23 24 26 27 27
274 288 273 150 159 173 215 252 229 215 191 170 168 177 194 178 157 117 92 75 50 352 345 14 20 8 8 35 45 38 26 23 24 22 19 18 16 13 16 23 25 26 32 31
285 283 300 107 127 137 214 261 205 192 185 174 176 212 203 160 147 132 113 97 56 332 1 20 14 2 19 38 42 34 23 23 21 19 22 23 16 13 14 20 25 34 40 38
264 272 287 119 125 140 216 24 109 167 175 177 189 194 125 138 140 135 130 128 136 330 23 15 8 9 30 43 41 35 26 25 20 14 21 30 20 16 17 20 27 37 45 45
228 253 220 135 151 196 235 111 145 183 178 175 168 146 130 133 137 142 148 154 180 304 358 28 23 11 44 51 40 34 27 27 32 29 25 28 22 19 20 20 29 36 41 43
300 25 120 172 197 226 296 217 169 191 183 169 166 163 155 156 157 163 168 166 176 233 256 187 90 31 38 53 31 15 18 39 47 47 53 41 27 29 25 19 25 33 34 37
293 269 195 200 219 218 216 236 193 187 181 175 176 173 169 175 174 171 171 170 178 222 250 199 127 109 66 51 354 336 6 49 72 55 55 58 43 35 37 21 17 21 31 34
256 262 239 201 210 215 201 210 206 193 185 185 183 184 179 185 187 176 167 168 180 218 245 235 169 158 132 87 319 315 350 67 88 89 71 78 80 48 47 57 39 21 14 24
249 268 238 228 193 201 201 202 204 200 191 189 190 190 187 189 184 177 172 169 183 212 235 243 192 164 149 142 274 302 28 49 70 105 102 104 127 109 51 64 64 56 48 50
261 318 346 20 144 196 204 199 200 203 197 191 193 193 193 191 183 181 182 183 191 200 214 232 211 196 170 158 229 294 326 82 54 66 85 6 119 141 150 126 57 44 49 57
354 335 282 255 233 213 211 201 199 204 202 195 193 193 193 196 192 190 194 191 188 198 208 215 211 212 193 164 195 255 245 138 173 210 216 240 69 86 137 154 164 172 136 83
298 267 266 271 247 220 209 199 200 205 204 199 194 195 196 199 200 196 195 189 183 194 212 221 217 207 174 166 216 239 237 183 174 208 232 222 205 217 145 117 142 143 148 173
316 295 275 267 256 237 221 212 211 211 207 203 198 198 199 200 200 193 190 189 192 199 206 216 219 200 171 174 209 239 221 139 164 252 255 224 213 208 185 183 181 134 133 141
339 322 299 280 266 252 238 229 223 218 212 208 203 198 197 198 199 198 194 193 196 201 207 210 207 189 171 175 198 223 223 190 189 221 252 252 230 215 193 186 187 168 137 136
341 331 321 306 289 273 258 244 235 226 218 210 201 197 199 202 203 201 195 192 194 203 213 214 198 185 179 183 198 225 242 215 192 208 220 229 228 224 213 201 201 185 159 168
349 342 334 326 317 302 285 266 246 233 223 209 202 203 204 206 203 199 197 197 201 206 206 205 204 197 187 186 191 206 241 250 225 209 209 202 205 229 228 218 212 199 183 174
352 346 338 329 321 313 302 291 272 244 226 213 206 205 206 206 202 199 201 206 204 196 190 192 189 194 200 187 180 200 228 245 244 224 210 204 207 220 225 218 212 206 198 190
352 348 343 336 328 321 312 302 289 267 240 218 212 210 209 206 201 200 202 210 200 182 185 188 188 187 195 182 175 196 217 238 242 234 222 215 219 225 228 227 217 208 206 199
352 349 346 342 336 329 323 315 305 288 264 237 219 213 210 208 204 205 204 198 186 181 180 182 189 192 189 173 177 196 209 228 238 234 229 225 225 229 232 231 225 216 209 204
348 347 346 344 341 336 334 332 326 314 290 261 235 221 216 211 204 204 209 193 181 182 184 188 191 193 188 183 186 195 205 217 227 230 228 226 227 228 229 233 228 222 216 208
343 344 345 345 345 347 346 342 337 334 329 312 281 249 227 215 211 205 197 187 186 182 188 193 190 188 184 191 195 200 207 214 218 221 225 228 232 236 233 229 226 224 222 221
338 341 344 347 350 348 344 343 343 346 348 345 336 324 293 245 212 199 191 184 182 178 187 191 187 185 187 198 202 206 208 211 214 213 214 219 226 232 238 239 232 228 225 224
329 330 334 339 345 345 345 348 350 353 355 352 344 341 338 336 326 197 179 174 175 180 185 183 186 191 199 204 209 212 210 207 208 211 214 218 227 227 226 229 237 232 230 228
319 322 325 330 338 343 343 344 346 350 354 351 341 341 346 353 356 357 360 81 165 179 191 193 191 193 200 205 211 217 216 209 200 197 201 209 217 224 226 227 225 225 226 227
Height
1533 1535 1536 1537 1539 1541 1544 1543 1546 1543 1543 1542 1543 1547 1549 1550 1551 1551 1551 1550 1549 1547 1545 1543 1540 1537 1534 1531 1528 1524 1520 1517 1513 1510 1507 1504 1500 1498 1495 1492 1490 1488 1486 1484
1534 1533 1535 1537 1536 1537 1539 1539 1540 1541 1541 1538 1542 1545 1547 1549 1550 1550 1550 1550 1549 1548 1546 1543 1541 1538 1535 1532 1529 1526 1522 1519 1515 1512 1509 1506 1503 1500 1498 1495 1493 1491 1489 1487
1534 1530 1535 1537 1528 1531 1533 1533 1536 1540 1538 1537 1541 1544 1546 1547 1548 1549 1550 1549 1549 1548 1546 1544 1542 1539 1536 1533 1530 1527 1524 1521 1518 1515 1512 1509 1506 1504 1501 1499 1497 1494 1492 1491
1533 1535 1545 1531 1520 1523 1527 1528 1528 1531 1533 1536 1539 1542 1544 1546 1547 1548 1549 1549 1548 1547 1546 1544 1542 1540 1537 1534 1531 1528 1525 1523 1520 1517 1514 1512 1509 1507 1504 1502 1500 1498 1496 1494
1533 1535 1528 1525 1521 1523 1528 1528 1524 1527 1530 1534 1538 1541 1542 1544 1545 1547 1547 1548 1548 1547 1546 1544 1542 1540 1538 1536 1533 1530 1527 1525 1522 1520 1517 1514 1512 1510 1508 1506 1503 1501 1500 1498
1534 1541 1537 1524 1519 1521 1527 1529 1520 1523 1527 1532 1536 1540 1540 1540 1543 1545 1546 1547 1547 1546 1546 1544 1542 1541 1539 1536 1534 1531 1529 1527 1525 1522 1520 1517 1515 1513 1511 1509 1507 1505 1503 1502
1540 1536 1522 1519 1520 1524 1535 1528 1520 1522 1525 1529 1533 1536 1537 1538 1541 1543 1545 1545 1546 1545 1545 1544 1542 1541 1539 1537 1535 1533 1531 1529 1527 1525 1523 1520 1518 1516 1514 1512 1510 1509 1507 1506
1529 1533 1528 1520 1522 1524 1523 1520 1521 1522 1524 1527 1531 1534 1536 1538 1540 1542 1543 1544 1544 1544 1544 1543 1542 1541 1539 1537 1536 1534 1532 1530 1529 1527 1525 1523 1521 1519 1517 1515 1513 1512 1511 1510
1518 1521 1517 1517 1518 1519 1519 1519 1520 1522 1524 1526 1529 1532 1534 1537 1539 1540 1542 1543 1543 1543 1543 1543 1542 1541 1539 1538 1536 1535 1534 1532 1531 1529 1527 1525 1523 1521 1519 1517 1516 1515 1514 1513
1516 1512 1513 1514 1515 1516 1517 1518 1519 1521 1523 1524 1527 1530 1532 1535 1537 1538 1540 1541 1541 1542 1542 1542 1541 1540 1539 1538 1537 1536 1535 1533 1532 1531 1529 1527 1525 1523 1522 1520 1519 1518 1516 1515
1513 1511 1510 1510 1511 1513 1515 1516 1518 1519 1521 1523 1525 1527 1530 1532 1534 1536 1537 1538 1539 1540 1540 1541 1540 1539 1538 1537 1536 1536 1535 1534 1533 1532 1530 1529 1528 1526 1524 1523 1522 1520 1519 1518
1512 1506 1507 1507 1507 1509 1511 1513 1515 1516 1518 1520 1522 1525 1527 1529 1531 1533 1534 1535 1536 1537 1538 1539 1539 1538 1537 1536 1536 1536 1535 1534 1533 1533 1531 1531 1529 1528 1527 1526 1524 1523 1522 1521
1504 1505 1505 1505 1506 1507 1508 1510 1511 1513 1515 1517 1519 1522 1524 1526 1528 1530 1531 1533 1534 1535 1536 1536 1537 1537 1536 1535 1535 1535 1534 1534 1533 1533 1532 1532 1531 1530 1529 1528 1527 1525 1524 1523
1502 1503 1504 1504 1505 1505 1506 1507 1509 1510 1512 1514 1516 1518 1520 1523 1525 1526 1528 1529 1531 1532 1533 1534 1534 1534 1534 1534 1533 1533 1533 1533 1533 1532 1532 1532 1531 1530 1530 1529 1528 1527 1526 1525
1501 1501 1502 1502 1502 1502 1503 1504 1506 1507 1508 1510 1512 1514 1516 1518 1520 1522 1524 1526 1527 1528 1529 1530 1531 1532 1532 1531 1531 1531 1532 1531 1531 1531 1531 1531 1531 1531 1530 1530 1529 1528 1527 1527
1498 1498 1499 1499 1499 1500 1500 1501 1502 1503 1504 1506 1508 1509 1511 1514 1516 1518 1520 1521 1523 1524 1525 1526 1527 1528 1528 1528 1529 1529 1529 1529 1529 1530 1530 1530 1530 1530 1530 1530 1529 1529 1528 1527
1497 1496 1496 1496 1496 1496 1497 1497 1498 1498 1500 1501 1503 1505 1507 1509 1511 1513 1514 1516 1518 1519 1521 1522 1523 1524 1525 1525 1525 1526 1526 1527 1527 1527 1528 1528 1529 1529 1529 1529 1529 1528 1528 1527
1496 1495 1495 1494 1493 1493 1492 1493 1493 1494 1495 1496 1498 1500 1501 1503 1504 1506 1509 1511 1513 1514 1516 1517 1519 1520 1520 1521 1522 1522 1523 1524 1525 1525 1525 1526 1527 1527 1527 1527 1527 1527 1527 1527
1494 1493 1491 1490 1490 1489 1488 1488 1488 1488 1490 1491 1492 1493 1495 1497 1499 1501 1504 1505 1506 1508 1510 1512 1514 1515 1516 1516 1517 1518 1520 1521 1522 1522 1523 1523 1524 1524 1525 1525 1525 1525 1525 1525
1494 1492 1490 1488 1487 1486 1484 1483 1483 1483 1484 1485 1486 1488 1489 1491 1493 1495 1497 1499 1500 1502 1505 1507 1508 1509 1511 1512 1513 1514 1515 1517 1518 1519 1520 1520 1521 1521 1522 1522 1523 1523 1523 1523
1494 1491 1488 1486 1484 1482 1481 1479 1479 1478 1478 1479 1480 1481 1483 1485 1487 1489 1490 1492 1494 1497 1499 1501 1502 1504 1506 1507 1508 1509 1511 1512 1513 1515 1516 1516 1517 1518 1518 1519 1520 1520 1521 1521
1494 1491 1488 1485 1482 1479 1477 1476 1475 1474 1474 1474 1474 1476 1478 1479 1481 1482 1483 1485 1488 1491 1493 1494 1496 1498 1500 1502 1503 1504 1506 1507 1508 1510 1511 1512 1513 1513 1514 1515 1516 1516 1517 1517
1495 1492 1488 1485 1481 1478 1475 1473 1471 1470 1469 1469 1469 1470 1472 1473 1475 1477 1477 1479 1482 1484 1486 1488 1490 1492 1494 1496 1497 1499 1500 1501 1503 1504 1506 1507 1508 1509 1510 1511 1511 1512 1513 1513
1495 1491 1488 1484 1481 1476 1473 1470 1468 1466 1465 1465 1465 1466 1467 1468 1469 1470 1472 1474 1476 1478 1480 1482 1484 1486 1488 1490 1491 1493 1494 1496 1497 1499 1500 1501 1502 1503 1505 1505 1506 1507 1508 1508
1494 1491 1487 1484 1480 1477 1473 1470 1467 1464 1462 1461 1461 1461 1462 1463 1464 1465 1467 1468 1470 1472 1473 1476 1478 1480 1482 1483 1485 1486 1488 1490 1491 1493 1494 1495 1496 1497 1499 1500 1501 1501 1502 1503
1493 1490 1487 1484 1481 1478 1474 1471 1467 1464 1461 1459 1458 1458 1457 1458 1458 1459 1460 1462 1463 1465 1467 1469 1471 1473 1475 1477 1479 1480 1482 1484 1485 1487 1488 1489 1490 1491 1492 1493 1494 1495 1496 1497
1490 1487 1485 1482 1480 1477 1474 1471 1468 1465 1462 1460 1457 1456 1455 1454 1454 1454 1455 1457 1458 1459 1461 1463 1465 1466 1468 1470 1472 1474 1476 1478 1479 1480 1482 1483 1484 1485 1486 1487 1488 1489 1490 1491